Regional Weather Roundup
Issued by NWS Albany, NY

Home | Current Version | Previous Version | Text Only | Print | Product List | Glossary On
Versions: 1 2 3 4 5 6 7 8 9 10 11 12 13 14 15 16 17 18 19 20 21 22 23 24 25 26 27 28 29 30 31 32 33 34 35 36 37 38 39 40 41 42 43 44 45 46 47 48 49 50
000
ASUS41 KALY 031210
RWRALY

NEW YORK STATE HOURLY WEATHER ROUNDUP
NATIONAL WEATHER SERVICE ALBANY NY
700 AM EST TUE MAR 03 2015

NOTE: "FAIR" INDICATES FEW OR NO CLOUDS BELOW 12,000 FEET WITH NO
SIGNIFICANT WEATHER AND/OR NO OBSTRUCTIONS TO VISIBILITY.

NYZ032-033-038>043-046>054-057>066-NYZ062>081-031300-
EAST


CITY           SKY/WX    TMP DP  RH WIND       PRES   REMARKS
ALBANY         MOCLDY    12   3  67 W8        30.41R WCI   0
GLENS FALLS    PTCLDY     0  -4  83 CALM      30.39R
POUGHKEEPSIE   PTCLDY     5  -1  76 CALM      30.43R
NEWBURGH       CLEAR     12   9  85 CALM      30.40R
MONTGOMERY     PTCLDY     2  -1  88 CALM      30.39S
WHITE PLAINS   CLEAR     10   5  80 NW5       30.40R WCI   2
ISLIP          PTCLDY    11   5  77 CALM      30.41R
NEW YORK CITY  MOCLDY    25  10  53 NW3       30.44R
CENTRAL PARK   CLEAR     24   8  50 NW6       30.45R WCI  17
$$

NYZ005>009-017-018-044>046-055-056-031300-
CENTRAL


CITY           SKY/WX    TMP DP  RH WIND       PRES   REMARKS
FULTON         PTCLDY     2  -4  76 CALM      30.37S
SYRACUSE       MOCLDY     3   3 100 SE5       30.37S WCI  -6
ROME           MOCLDY    -7 -10  87 CALM      30.41S
ELMIRA         MOCLDY     5   2  87 CALM      30.36F
BINGHAMTON     MOCLDY    10   7  87 CALM      30.28F
MONTICELLO     PTCLDY     7   3  85 CALM      30.32S
$$

NYZ026>034-041>043-031300-
NORTH


CITY           SKY/WX    TMP DP  RH WIND       PRES   REMARKS
WATERTOWN      MOCLDY    -7 -11  83 CALM      30.38R
FORT DRUM      NOT AVBL
MASSENA        MOCLDY   -10 -16  74 CALM      30.37F
SARANAC LAKE   PTCLDY   -17 -22  78 CALM      30.23R
PLATTSBURGH    CLEAR     -1  -6  79 CALM      30.37S
$$

NYZ001>004-010>016-019>021-031300-
WEST


CITY           SKY/WX    TMP DP  RH WIND       PRES   REMARKS
NIAGARA FALLS  CLOUDY    10   6  84 SE5       30.29F WCI   2
BUFFALO        CLOUDY    12   5  73 SE8       30.30F WCI   0
DUNKIRK        CLOUDY    17  12  80 CALM      30.29F
JAMESTOWN      CLOUDY    10   7  85 S7        30.20F WCI   0
WELLSVILLE     CLOUDY    10   5  80 SE5       30.23F WCI   2
ROCHESTER      MOCLDY    11   5  77 SW7       30.34F WCI   0
PENN YAN       MOCLDY    10   6  84 SW9       30.33F WCI  -3
$$

             KEY
       WCI = WIND CHILL INDEX
       VSB = VISIBILITY
       HX  = HEAT INDEX
$$


USA.gov is the U.S. government's official web portal to all federal, state and local government web resources and services.